EW8255 Weather Reports


time (UTC)temp
F
wind
direction
speed
knots
gust
knots
rain 1hr
in
rain 24hr
in
rain mn
in
humidity
%
barometer
mb
20260505101521 49 323 0.0 4.3 0.00 0.00 0.00 97 1021.4
20260505100024 48 320 0.9 5.2 0.00 0.00 0.00 97 1021.6
20260505094519 48 282 0.0 3.5 0.00 0.00 0.00 97 1021.6
20260505093018 49 341 0.9 3.5 0.00 0.00 0.00 96 1021.6
20260505091517 48 322 0.0 2.6 0.00 0.00 0.00 96 1021.6
20260505090016 48 297 0.9 2.6 0.00 0.00 0.00 96 1021.6
20260505084534 48 288 0.9 2.6 0.00 0.00 0.00 96 1021.6
20260505083013 48 307 0.9 3.5 0.00 0.00 0.00 95 1021.4
20260505081517 49 314 0.0 0.9 0.00 0.00 0.00 95 1021.3
20260505080009 49 309 0.0 1.7 0.00 0.00 0.00 94 1021.2
20260505074509 49 340 0.0 0.9 0.00 0.00 0.00 94 1021.1
20260505073007 49 314 0.0 1.7 0.00 0.00 0.00 94 1021.0
20260505071505 49 295 0.9 2.6 0.00 0.00 0.00 93 1020.9
20260505070004 49 288 0.9 2.6 0.00 0.00 0.00 92 1020.9
20260505064503 50 322 0.0 2.6 0.00 0.00 0.00 91 1020.6
20260505063002 50 281 0.9 2.6 0.00 0.00 0.00 90 1020.5
20260505061600 50 299 0.0 3.5 0.00 0.00 0.00 89 1020.4
20260505060059 50 272 0.0 2.6 0.00 0.00 0.00 88 1020.4
20260505054557 50 315 1.7 3.5 0.00 0.00 0.00 87 1020.1
20260505053114 51 253 0.9 3.5 0.00 0.00 0.00 87 1019.9
20260505051553 51 303 0.9 4.3 0.00 0.00 0.00 86 1019.8
20260505041548 51 328 1.7 5.2 0.00 0.00 0.00 86 1019.4
20260505040046 51 352 0.9 6.1 0.00 0.00 0.00 85 1019.3
20260505034601 51 233 0.9 7.0 0.00 0.00 0.00 85 1019.2
20260505033051 52 327 2.6 5.2 0.00 0.00 0.00 85 1019.1
20260505031542 52 310 1.7 6.1 0.00 0.00 0.00 85 1019.1
20260505030040 51 167 1.7 5.2 0.00 0.00 0.00 87 1019.3
20260505024539 51 176 1.7 5.2 0.00 0.00 0.00 89 1019.4
20260505023043 51 312 0.9 5.2 0.00 0.00 0.00 91 1019.5
20260505021537 51 354 0.0 5.2 0.00 0.00 0.00 90 1019.5
20260505020034 51 321 1.7 4.3 0.00 0.00 0.00 92 1019.5
20260505014531 50 318 1.7 5.2 0.00 0.00 0.00 93 1019.5
20260505013029 50 293 0.0 7.0 0.00 0.00 0.00 95 1019.6
20260505011546 49 320 0.9 4.3 0.00 0.00 0.00 95 1019.7
20260505010026 49 319 1.7 3.5 0.00 0.00 0.00 95 1019.6
20260505004523 49 222 0.9 4.3 0.00 0.00 0.00 95 1019.5
20260505003019 49 266 0.9 6.1 0.00 0.00 0.00 96 1019.3
20260505001518 48 229 0.9 3.5 0.00 0.00 0.00 96 1019.1
20260505000016 48 310 0.0 3.5 0.00 0.00 0.00 96 1019.1
20260504234514 48 141 0.9 5.2 0.00 0.00 0.00 96 1019.1
20260504233011 48 245 0.9 6.1 0.00 0.00 0.00 97 1018.9
20260504231513 47 243 0.9 4.3 0.00 0.00 0.00 97 1018.8
20260504230009 47 300 0.9 4.3 0.00 0.00 0.00 97 1018.6
20260504224512 46 293 1.7 7.0 0.00 0.00 0.00 97 1018.6
20260504223005 47 324 0.9 5.2 0.00 0.00 0.00 97 1018.4
20260504221504 46 283 1.7 5.2 0.00 0.00 0.00 97 1018.2
20260504220001 46 246 0.9 4.3 0.00 0.00 0.00 97 1017.9
20260504214608 47 320 0.9 4.3 0.00 0.00 0.00 97 1017.7
20260504213056 47 314 0.9 5.2 0.00 0.00 0.00 97 1017.3
20260504211554 47 232 0.9 4.3 0.00 0.00 0.00 97 1017.0
20260504210055 47 300 1.7 5.2 0.00 0.00 0.00 97 1016.8
20260504204553 47 323 0.9 4.3 0.00 0.00 0.00 97 1016.5
20260504203050 47 305 1.7 5.2 0.00 0.00 0.00 97 1016.2
20260504201545 47 304 0.9 5.2 0.00 0.00 0.00 97 1015.9
20260504200042 47 308 0.9 3.5 0.00 0.00 0.00 97 1015.8
20260504194545 47 288 1.7 3.5 0.00 0.00 0.00 97 1015.6
20260504193038 48 342 0.9 7.0 0.00 0.00 0.00 97 1015.6
20260504191535 48 284 1.7 6.1 0.00 0.00 0.00 97 1015.5
20260504190034 48 269 0.0 5.2 0.00 0.00 0.00 97 1015.2
20260504184531 48 276 0.9 5.2 0.00 0.00 0.00 97 1015.0
20260504183029 48 259 0.9 4.3 0.00 0.00 0.00 97 1014.8
20260504181527 48 276 1.7 7.8 0.00 0.00 0.00 97 1014.7
20260504180024 48 304 1.7 6.1 0.00 0.00 0.00 97 1014.5
20260504174524 48 286 0.9 4.3 0.00 0.00 0.00 97 1014.4
20260504173022 48 244 1.7 6.1 0.00 0.00 0.00 97 1014.3
20260504171524 48 216 0.0 7.0 0.00 0.00 0.00 97 1014.2